Location: Joplin, MO
(37.0842°N, 94.5133°W)
Time: 21:08:08
(UTC+02:00)

Courier 1B Rocket - Pass Details

Date: 05 April 2023
Orbit: 920 x 1202 km, 28.2° (Epoch: 05 June)

Event Time Altitude Azimuth Distance (km) Brightness Sun altitude
Rises 02:11:52 0° 257° (WSW) 4,079 10.0 5.4°
Reaches altitude 10° 02:14:54 10° 251° (WSW) 3,096 9.1 4.8°
Maximum altitude 02:22:03 43° 183° (S) 1,556 6.2 3.3°
Drops below altitude 10° 02:28:50 10° 114° (ESE) 2,935 6.9 2.0°
Sets 02:31:38 0° 108° (ESE) 3,848 7.4 1.4°
